COSMOS 2251 DEB, 34022

Orbit data source: Space-Track

COSMOS 2251 DEB, 34022 is space debris in LEO originally from a launch on Wed, 16 Jun 1993 UTC launched from the Plesetsk Missile And Space Complex (PKMTR). The debris from Iridium 33, an American commercial communications satellite, has been tracked extensively since its accidental collision with the defunct Russian satellite Cosmos 2251 in 2009. This event, occurring at high speed in low Earth orbit (LEO), generated thousands of pieces of space debris, significantly increasing the risk of further collisions. The Iridium 33 debris cloud has impacted space traffic management and orbital debris mitigation strategies, making it a subject of ongoing study in space situational awareness.

Loading next visibility...
Identifier
34022, 1993-036HH
Orbit
LEO
Country
Flag of CISCIS
Related business
Manufacturer
Unknown
Mission
Spacecraft
Bus & Motor
Unknown
Mass
Unknown
Launch date (UTC)
1993-06-16 (33 years ago)
Launch vehicle
Unknown
Launch site
Plesetsk Missile And Space Complex (PKMTR)
Object type
Payload
Rocket body
Debris
Shape & HBR
Unknown shape, 0.2 m
Radar Cross Section
Small (<0.1 m²)

Expand to show TLE details & history
Last TLE update: 8 hours ago

TLE from 8 hours ago
0 COSMOS 2251 DEB
1 34022U 93036HH  26122.16826450  .00000553  00000-0  18664-3 0  9998
2 34022  74.0559  11.9964 0021469  44.8578 110.3787 14.39170603902159
Epoch: 2026-05-02T04:02Z
TLE epoch observation values (Epoch: 2026-05-02T04:02:18.052Z)
Latitude
23.55925°
Longitude
-95.78661°
Altitude
769.156 km
Speed
7.469 km/s
True Right ascension
12h 19m 30s
True Declination
23° 26' 01"
Sunlit
Object was in full shadow at epoch
Visualization orbit readout
Latitude
Unknown
Longitude
Unknown
Altitude
Unknown
Speed
Unknown
Apparent Right ascension
Unknown
Apparent Declination
Unknown
Sunlit
N/A
Visualization observer readout
Local Sidereal Time
19:50:30
Azimuth
Unknown
Elevation
Unknown
Doppler factor
Unknown
Orbital elements
Apogee altitude
774.181 km
Perigee altitude
743.536 km
Semi-major axis
7,136.996 km
Eccentricity
0.00215
Inclination
74.0559°
RAAN
11.9964°
Arg. of periapsis
44.8578°
True anomaly
110.6091°
Mean anomaly
110.3787°
Eccentric anomaly
110.49392°
Mean motion
3.59973 °/min
Orbital period
100.01 mins
BSTAR
0.00018664
Loading maneuver chart data...
Computing Atmospheric mass density...
Loading historical data...
Loading historical data...
Loading historical data...
Loading historical data...
Loading historical data...
Loading historical data...
Loading historical data...

Documentation

Showing up to 5 results
|